Change the Weather History Date:

Monday, November 7, 2011

  Actual Average Record
Temperature  
Mean Temperature 30 °F 37 °F  
Max Temperature 42 °F 47 °F 76 °F (1999)
Min Temperature 18 °F 26 °F -9 °F (1973)
Degree Days  
Heating Degree Days 35 28  
Month to date heating degree days 224 188  
Since 1 July heating degree days 920 1208  
Cooling Degree Days 0 0  
Month to date cooling degree days 0 0  
Year to date cooling degree days 365 298  
Moisture  
Dew Point 15 °F    
Average Humidity 55    
Maximum Humidity 77    
Minimum Humidity 33    
Precipitation  
Precipitation 0.00 in 0.02 in 0.29 in (1898)
Month to date precipitation 0.05 0.14  
Year to date precipitation 15.90 13.75  
Snow  
Snow 0.00 in 0.20 in 4.00 in (1898)
Month to date snowfall 1.3 1.5  
Since 1 July snowfall 1.4 7.1  
Since 1 September snowfall 1.4 6.8  
Snow Depth 0.00 in    
Sea Level Pressure  
Sea Level Pressure 30.10 in    
Wind  
Wind Speed 14 mph (SW)    
Max Wind Speed 24 mph    
Max Gust Speed 31 mph    
Visibility 10 miles    
Events      
T = Trace of Precipitation, MM = Missing Value Source: NWS Daily Summary

Daily Weather History Graph

Daily Weather History Graph

Search for Another Location

Airport or City:

Trip Planner

Search our weather history database for the weather conditions in past years. The results will help you decide how hot, cold, wet, or windy it might be!

Date:

Astronomy

Nov. 07, 2011 Rise Set
Actual Time 7:18 AM MST 4:59 PM MST
Civil Twilight 6:45 AM MST 5:32 PM MST
Nautical Twilight 6:08 AM MST 6:09 PM MST
Astronomical Twilight 5:32 AM MST 6:44 PM MST
Moon 3:19 PM MST (11/7) 4:15 AM MST (11/7)
Length of Visible Light 10h 47m
Length of Day
9h 41m
Waxing Gibbous, 92% of the Moon is Illuminated
Nov 7
Waxing Gibbous
Nov 10
Full
Nov 18
Last Quarter
Nov 24
New
Dec 2
First Quarter

Hourly Weather History & Observations

Time (MST) Temp. Windchill Dew Point Humidity Pressure Visibility Wind Dir Wind Speed Gust Speed Precip Events Conditions
12:53 AM 19.0 °F 8.2 °F 12.9 °F 77% 30.10 in 10.0 mi SSW 9.2 mph - N/A   Clear
1:53 AM 19.0 °F 8.2 °F 12.9 °F 77% 30.11 in 10.0 mi SSW 9.2 mph - N/A   Clear
2:53 AM 19.0 °F 8.2 °F 12.9 °F 77% 30.12 in 10.0 mi SSW 9.2 mph - N/A   Clear
3:53 AM 21.0 °F 10.6 °F 15.1 °F 78% 30.10 in 10.0 mi SSW 9.2 mph - N/A   Clear
4:53 AM 21.0 °F 9.9 °F 14.0 °F 74% 30.12 in 10.0 mi SSW 10.4 mph - N/A   Clear
5:53 AM 21.2 °F 10.1 °F 14.0 °F 74% 29.97 in 10.0 mi SSW 10.4 mph - N/A   Clear
6:53 AM 23.0 °F 12.4 °F 14.0 °F 68% 30.13 in 10.0 mi SSW 10.4 mph - N/A   Clear
7:53 AM 26.1 °F 15.6 °F 16.0 °F 66% 30.15 in 10.0 mi SSW 11.5 mph - N/A   Clear
8:53 AM 28.9 °F 19.2 °F 16.0 °F 58% 30.16 in 10.0 mi SW 11.5 mph - N/A   Clear
9:53 AM 34.0 °F 24.2 °F 17.1 °F 50% 30.15 in 10.0 mi SW 15.0 mph 25.3 mph N/A   Clear
10:53 AM 36.0 °F 25.6 °F 16.0 °F 44% 30.15 in 10.0 mi SW 18.4 mph 24.2 mph N/A   Clear
11:53 AM 37.9 °F 27.6 °F 16.0 °F 41% 30.12 in 10.0 mi SW 20.7 mph - N/A   Clear
12:53 PM 39.9 °F 31.1 °F 15.1 °F 36% 30.11 in 10.0 mi WSW 17.3 mph 25.3 mph N/A   Clear
1:53 PM 39.9 °F 31.1 °F 12.9 °F 33% 30.10 in 10.0 mi WSW 17.3 mph 27.6 mph N/A   Clear
2:53 PM 39.9 °F 30.5 °F 14.0 °F 35% 30.09 in 10.0 mi SW 19.6 mph 26.5 mph N/A   Clear
3:53 PM 37.4 °F 27.8 °F 15.8 °F 41% 29.97 in 10.0 mi SW 17.3 mph 23.0 mph N/A   Clear
4:53 PM 35.1 °F 25.5 °F 15.1 °F 44% 30.13 in 10.0 mi SW 15.0 mph - N/A   Clear
5:53 PM 32.0 °F 22.5 °F 16.0 °F 52% 30.15 in 10.0 mi SW 12.7 mph - N/A   Clear
6:53 PM 28.4 °F 18.5 °F 15.8 °F 59% 30.01 in 10.0 mi SSW 11.5 mph - N/A   Clear
7:53 PM 28.9 °F 17.7 °F 16.0 °F 58% 30.15 in 10.0 mi SSW 15.0 mph - N/A   Clear
8:53 PM 30.0 °F 19.5 °F 17.1 °F 59% 30.13 in 10.0 mi SSW 13.8 mph - N/A   Clear
9:53 PM 33.1 °F 22.6 °F 17.1 °F 52% 30.09 in 10.0 mi SSW 16.1 mph - N/A   Clear
10:53 PM 34.0 °F 23.4 °F 18.0 °F 52% 30.09 in 10.0 mi SW 17.3 mph 25.3 mph N/A   Mostly Cloudy
11:53 PM 34.0 °F 23.4 °F 18.0 °F 52% 30.07 in 10.0 mi SW 17.3 mph - N/A   Mostly Cloudy